Regional Weather Roundup
Issued by NWS

Home | Current Version | Previous Version | Text Only | Print | Product List | Glossary On
Versions: 1 2 3 4 5 6 7 8 9 10 11 12 13 14 15 16 17 18 19 20 21 22 23 24 25 26 27 28 29 30 31 32 33 34 35 36 37 38 39 40 41 42 43 44 45 46 47 48 49 50
000
ASUS43 KLSX 140357
RWRMO

WEATHER SUMMARY FOR MISSOURI
NATIONAL WEATHER SERVICE SPRINGFIELD MO
1000 PM CST WED DEC 13 2017

NOTE: "FAIR" INDICATES FEW OR NO CLOUDS BELOW 12,000 FEET WITH NO
       SIGNIFICANT WEATHER AND/OR OBSTRUCTIONS TO VISIBILITY.
       CURRENT SKY AND/OR WEATHER CONDITIONS ARE NOT AVAILABLE FOR
       CHILLICOTHE AND FARMINGTON.

MOZ001>031-035>038-043-044-053-054-140500-
...NORTHERN AND WESTERN MISSOURI...

CITY           SKY/WX    TMP DP  RH WIND       PRES   REMARKS
KANSAS CTY INT PTCLDY    36  27  69 NW6       29.94R
LEE`S SUMMIT   CLEAR     40  28  62 N13       29.93R
ST JOSEPH      CLOUDY    36  29  75 N8        29.96R WCI  30
CHILLICOTHE      N/A     40  26  57 N6G20     29.93R

$$
MOZ066>068-077>081-088>096-101>105-140500-
...SOUTHWEST MISSOURI...

CITY           SKY/WX    TMP DP  RH WIND       PRES   REMARKS
SPRINGFIELD    CLEAR     44  27  51 NW12      29.87R
JOPLIN         CLEAR     42  27  55 NW5       29.91R

$$
MOZ032>034-039>042-045>050-055>058-069>072-140500-
...CENTRAL MISSOURI...

CITY           SKY/WX    TMP DP  RH WIND       PRES   REMARKS
COLUMBIA       NOT AVBL
JEFFERSON CITY PTCLDY    44  29  55 NW9       29.87R
ROLLA          CLEAR     43  29  57 NW12      29.84R
SEDALIA        CLEAR     41  30  65 NW12      29.91R
WARRENSBURG    CLEAR     39  28  65 NW8       29.92R

$$
MOZ051-052-059>065-140500-
...EAST CENTRAL MISSOURI...

CITY           SKY/WX    TMP DP  RH WIND       PRES   REMARKS
ST LOUIS INTL  CLOUDY    41  28  60 NW18      29.81R

$$
MOZ072>076-082>087-097>100-106>115-140500-
...SOUTH CENTRAL AND SOUTHEAST MISSOURI...

CITY           SKY/WX    TMP DP  RH WIND       PRES   REMARKS
CAPE GIRARDEAU PTCLDY    35  24  64 W8        29.78R WCI  29
POPLAR BLUFF   CLEAR     47  26  44 W5        29.80R
WEST PLAINS    CLEAR     41  25  53 W6        29.85R

$$


USA.gov is the U.S. government's official web portal to all federal, state and local government web resources and services.